IUS DEB, 43361

Orbit data source: Space-Track

IUS DEB, 43361 is space debris originally from a launch on Fri, 23 Jul 1999 UTC launched from the Air Force Eastern Test Range (AFETR). Debris objects in space refer to the collection of defunct objects orbiting the Earth. Examples of debris include non-operational satellites, rocket bodies, and fragments generated from explosions, collisions, or faulty payload assembly.

Loading next visibility...
Identifier
43361, 1999-040J
Orbit
Active
Country
Flag of USUS
Related business
Manufacturer
Boeing/Kent
Mission
Spacecraft
Bus & Motor
Unknown
Mass
Unknown
Launch date (UTC)
1999-07-23 (27 years ago)
Launch vehicle
Unknown
Launch site
Air Force Eastern Test Range (AFETR)
Object type
Payload
Rocket body
Debris
Shape & HBR
Unknown shape, 0.1 m
Radar Cross Section
Medium (>0.1 m² and <1 m²)

Expand to show TLE details & history
Last TLE update: 6 days ago

TLE from 6 days ago
0 IUS DEB
1 43361U 99040J   26259.47043715 -.00001390  00000-0 -50570-1 0  9997
2 43361  27.8106 348.1289 3248814 131.0872 261.9292  7.20378261125106
Epoch: 2026-09-16T11:17Z
TLE epoch observation values (Epoch: 2026-09-16T11:17:25.769Z)
Latitude
Longitude
-176.65003°
Altitude
6,497.276 km
Speed
5.17 km/s
True Right ascension
23h 12m 30s
True Declination
0° 00' 00"
Sunlit
Object was in full shadow at epoch
Visualization orbit readout
Latitude
Unknown
Longitude
Unknown
Altitude
Unknown
Speed
Unknown
Apparent Right ascension
Unknown
Apparent Declination
Unknown
Sunlit
N/A
Visualization observer readout
Local Sidereal Time
15:14:56
Azimuth
Unknown
Elevation
Unknown
Doppler factor
Unknown
Orbital elements
Apogee altitude
8,629.908 km
Perigee altitude
1,269.499 km
Semi-major axis
11,327.84 km
Eccentricity
0.32488
Inclination
27.8106°
RAAN
348.1289°
Arg. of periapsis
131.0872°
True anomaly
228.95201°
Mean anomaly
261.9292°
Eccentric anomaly
245.05178°
Mean motion
1.80021 °/min
Orbital period
199.98 mins
BSTAR
-0.05057
Loading maneuver chart data...
Computing Atmospheric mass density...
Loading historical data...
Loading historical data...
Loading historical data...
Loading historical data...
Loading historical data...
Loading historical data...
Loading historical data...

Documentation

Showing up to 5 results
|